Hickory, NC

4:19 PM EDT on July 21, 2017 (GMT -0400)
Hickory Regional

Weather History for KHKY - November, 2013

Change the Weather History Date:

Friday, November 29, 2013

  Actual Average Record
Temperature  
Mean Temperature 38 °F -  
Max Temperature 52 °F 54 °F 72 °F (1998)
Min Temperature 25 °F 34 °F 15 °F (1955)
Degree Days  
Heating Degree Days 26    
Moisture  
Dew Point 22 °F    
Average Humidity 60    
Maximum Humidity 88    
Minimum Humidity 27    
Precipitation  
Precipitation 0.00 in - - ()
Sea Level Pressure  
Sea Level Pressure 30.50 in    
Wind  
Wind Speed 1 mph (NE)    
Max Wind Speed 6 mph    
Max Gust Speed -    
Visibility 10 miles    
Events      
Averages and records for this station are not official NWS values.
T = Trace of Precipitation, MM = Missing Value Source: NWS Daily Summary

Daily Weather History Graph

Daily Weather History Graph

Search for Another Location

Airport or City:

Trip Planner

Search our weather history database for the weather conditions in past years. The results will help you decide how hot, cold, wet, or windy it might be!

Date:

Astronomy

Nov. 29, 2013 Rise Set
Actual Time 7:15 AM EST 5:12 PM EST
Civil Twilight 6:47 AM EST 5:40 PM EST
Nautical Twilight 6:15 AM EST 6:11 PM EST
Astronomical Twilight 5:45 AM EST 6:42 PM EST
Moon 3:26 AM EST (11/29) 2:50 PM EST (11/29)
Length of Visible Light 10h 52m
Length of Day
9h 57m
Waning Crescent, 14% of the Moon is Illuminated
Nov 29
Waning Crescent
Dec 2
New
Dec 9
First Quarter
Dec 17
Full
Dec 25
Last Quarter

Hourly Weather History & Observations

Time (EST) Temp. Windchill Dew Point Humidity Pressure Visibility Wind Dir Wind Speed Gust Speed Precip Events Conditions
12:53 AM 28.9 °F - 21.9 °F 75% 30.43 in 10.0 mi Calm Calm - N/A   Clear
1:53 AM 28.0 °F - 24.1 °F 85% 30.43 in 9.0 mi Calm Calm - N/A   Clear
2:53 AM 28.0 °F - 21.9 °F 78% 30.43 in 10.0 mi Calm Calm - N/A   Clear
3:53 AM 27.0 °F - 23.0 °F 85% 30.43 in 10.0 mi Calm Calm - N/A   Clear
4:53 AM 27.0 °F - 21.9 °F 81% 30.44 in 10.0 mi Calm Calm - N/A   Clear
5:53 AM 25.0 °F - 21.9 °F 88% 30.45 in 10.0 mi Calm Calm - N/A   Clear
6:53 AM 25.0 °F 18.1 °F 21.9 °F 88% 30.48 in 10.0 mi NW 5.8 mph - N/A   Clear
7:53 AM 26.1 °F - 21.9 °F 84% 30.49 in 10.0 mi Calm Calm - N/A   Clear
8:53 AM 30.9 °F - 25.0 °F 79% 30.51 in 10.0 mi Calm Calm - N/A   Clear
9:53 AM 37.9 °F - 27.0 °F 65% 30.52 in 10.0 mi Calm Calm - N/A   Clear
10:53 AM 44.1 °F 42.5 °F 24.1 °F 45% 30.52 in 10.0 mi North 3.5 mph - N/A   Clear
11:53 AM 48.0 °F - 21.9 °F 36% 30.50 in 10.0 mi Variable 4.6 mph - N/A   Clear
12:53 PM 51.1 °F - 18.0 °F 27% 30.48 in 10.0 mi Calm Calm - N/A   Clear
1:53 PM 51.1 °F - 19.9 °F 29% 30.47 in 10.0 mi Calm Calm - N/A   Clear
2:53 PM 52.0 °F - 19.0 °F 27% 30.46 in 10.0 mi East 4.6 mph - N/A   Clear
3:53 PM 52.0 °F - 19.0 °F 27% 30.47 in 10.0 mi East 5.8 mph - N/A   Clear
4:53 PM 48.9 °F - 21.0 °F 33% 30.49 in 10.0 mi East 3.5 mph - N/A   Clear
5:53 PM 46.0 °F 44.8 °F 21.9 °F 39% 30.51 in 10.0 mi East 3.5 mph - N/A   Clear
6:53 PM 44.1 °F 42.5 °F 21.9 °F 42% 30.53 in 10.0 mi East 3.5 mph - N/A   Clear
7:53 PM 39.9 °F 36.7 °F 21.9 °F 49% 30.55 in 10.0 mi ENE 4.6 mph - N/A   Clear
8:53 PM 36.0 °F - 25.0 °F 64% 30.56 in 10.0 mi Calm Calm - N/A   Clear
9:53 PM 33.1 °F 30.0 °F 25.0 °F 72% 30.57 in 10.0 mi NNE 3.5 mph - N/A   Clear
10:53 PM 32.0 °F 28.7 °F 25.0 °F 75% 30.58 in 10.0 mi NNE 3.5 mph - N/A   Clear
11:53 PM 30.9 °F 27.5 °F 24.1 °F 76% 30.58 in 10.0 mi NNE 3.5 mph - N/A   Clear